Regional Weather Roundup
Issued by NWS

Home | Current Version | Previous Version | Graphics & Text | Print | Product List | Glossary On
Versions: 1 2 3 4 5 6 7 8 9 10 11 12 13 14 15 16 17 18 19 20 21 22 23 24 25 26 27 28 29 30 31 32 33 34 35 36 37 38 39 40 41 42 43 44 45 46 47 48 49 50
000
ASUS43 KOAX 231802
RWRNE

WEATHER ROUNDUP FOR NEBRASKA
NATIONAL WEATHER SERVICE OMAHA NE
100 PM CDT THU MAR 23 2017

NOTES: SATELLITE DATA IS BEING USED TO AUGMENT CLOUD COVER ABOVE
       12000 FEET.
       "FAIR" INDICATES FEW OR NO CLOUDS BELOW 12,000 FEET WITH NO
       SIGNIFICANT WEATHER AND/OR OBSTRUCTIONS TO VISIBILITY.

  * THESE STATIONS DO NOT REPORT WEATHER SUCH AS RAIN...SNOW OR FOG.

NEZ001>004-019>022-054>056-231900-
NEBRASKA PANHANDLE

CITY           SKY/WX    TMP DP  RH WIND       PRES   REMARKS
SCOTTSBLUFF    SUNNY     58  39  49 SE12      29.64F
6HR MIN TEMP:  34; 6HR MAX TEMP:  58;

ALLIANCE       CLOUDY    56  39  53 CALM      29.63F
6HR MIN TEMP:  35; 6HR MAX TEMP:  56;

CHADRON        SUNNY     62  41  46 NE8       29.60F
6HR MIN TEMP:  37; 6HR MAX TEMP:  63;

KIMBALL        SUNNY     65  41  40 E14       29.66F
SIDNEY         CLOUDY    59  40  49 CALM      29.64F
6HR MIN TEMP:  30; 6HR MAX TEMP:  59;

$$

NEZ057>060-069>072-079>082-231900-
SOUTHWEST NEBRASKA

CITY           SKY/WX    TMP DP  RH WIND       PRES   REMARKS
NORTH PLATTE   CLOUDY    55  50  83 SE6       29.67F
6HR MIN TEMP:  45; 6HR MAX TEMP:  55;

IMPERIAL       SUNNY     65  49  56 S6        29.63F
6HR MIN TEMP:  41; 6HR MAX TEMP:  66;

LEXINGTON      FOG       54  53  96 S10       29.70F VSB 3/4
MCCOOK         SUNNY     75  55  49 S17       29.63F
6HR MIN TEMP:  48; 6HR MAX TEMP:  75;

OGALLALA       SUNNY     67  46  46 SW7       29.63F
$$

NEZ005>010-023>029-035>040-094-231900-
NORTH CENTRAL NEBRASKA

CITY           SKY/WX    TMP DP  RH WIND       PRES   REMARKS
VALENTINE      CLOUDY    52  44  74 S16       29.65F
6HR MIN TEMP:  45; 6HR MAX TEMP:  52;

AINSWORTH      CLOUDY    52  48  88 S15       29.64F
BROKEN BOW     LGT RAIN  52  31  44 S17G25    29.69F
6HR MIN TEMP:  45; 6HR MAX TEMP:  52; 6HR PCP:  0.01;

O`NEILL        CLOUDY    51  49  91 S22       29.70F
ORD            CLOUDY    50  48  93 S13       29.70F FOG
6HR MIN TEMP:  47; 6HR MAX TEMP:  50;

THEDFORD       CLOUDY    55  49  81 S14       29.66F
$$

NEZ041-046>049-061>064-073>077-083>087-231900-
SOUTH CENTRAL NEBRASKA

CITY           SKY/WX    TMP DP  RH WIND       PRES   REMARKS
GRAND ISLAND   CLOUDY    55  51  86 S16G23    29.75F
6HR MIN TEMP:  47; 6HR MAX TEMP:  55;

AURORA         CLOUDY    56  50  82 S16G29    29.76F
HASTINGS       CLOUDY    56  52  86 S18G26    29.74F
6HR MIN TEMP:  48; 6HR MAX TEMP:  56;

HEBRON         CLOUDY    61  52  72 S18G26    29.78F
HOLDREGE       CLOUDY    56  54  95 S16G22    29.69F FOG
KEARNEY *      CLOUDY    54  52  94 S14G20    29.72F
YORK           PTSUNNY   57  50  77 S18G28    29.77F
$$

NEZ011>018-030>034-042>045-231900-
NORTHEAST NEBRASKA

CITY           SKY/WX    TMP DP  RH WIND       PRES   REMARKS
NORFOLK        CLOUDY    55  44  66 S22G30    29.76F
6HR MIN TEMP:  42; 6HR MAX TEMP:  55;

ALBION         CLOUDY    54  48  78 S22       29.75F
BLAIR          CLOUDY    60  38  45 SE18G25   29.81F
FREMONT        CLOUDY    59  41  51 S16G24    29.81F
TEKAMAH        CLOUDY    57  38  48 S21       29.83F
6HR MIN TEMP:  41; 6HR MAX TEMP:  57;

WAYNE          CLOUDY    55  42  63 S21G29    29.78F
$$

NEZ050>053-065>068-078-088>093-231900-
SOUTHEAST NEBRASKA

CITY           SKY/WX    TMP DP  RH WIND       PRES   REMARKS
LINCOLN        CLOUDY    65  50  58 S16       29.79F
6HR MIN TEMP:  50; 6HR MAX TEMP:  65;

OMAHA EPPLEY   PTSUNNY   62  38  40 SE25G33   29.82F
6HR MIN TEMP:  46; 6HR MAX TEMP:  62;

BEATRICE       CLOUDY    69  54  58 S25G31    29.78F
FALLS CITY     MOSUNNY   67  48  50 S28G33    29.85F
6HR MIN TEMP:  49; 6HR MAX TEMP:  67;

NEBRASKA CITY  SUNNY     68  40  35 S25G32    29.83F
PLATTSMOUTH    SUNNY     66  36  32 SE18G28   29.82F
$$

NEZ044-045-051>053-067-231900-
OMAHA AREA

CITY           SKY/WX    TMP DP  RH WIND       PRES   REMARKS
OMAHA EPPLEY   PTSUNNY   62  38  40 SE25G33   29.82F
6HR MIN TEMP:  46; 6HR MAX TEMP:  62;

BLAIR          CLOUDY    60  38  45 SE18G25   29.81F
FREMONT        CLOUDY    59  41  51 S16G24    29.81F
MILLARD        SUNNY     65  42  43 SE20G25   29.81F
OFFUTT AFB     SUNNY     64  39  39 SE20      29.82F
PLATTSMOUTH    SUNNY     66  36  32 SE18G28   29.82F
WAHOO          CLOUDY    60  41  48 S22       29.80F
$$



USA.gov is the U.S. government's official web portal to all federal, state and local government web resources and services.